Regional Weather Roundup
Issued by NWS

Home | Current Version | Previous Version | Graphics & Text | Print | Product List | Glossary On
Versions: 1 2 3 4 5 6 7 8 9 10 11 12 13 14 15 16 17 18 19 20 21 22 23 24 25 26 27 28 29 30 31 32 33 34 35 36 37 38 39 40 41 42 43 44 45 46 47 48 49 50
000
ASUS44 KMEG 190500
RWRTN
TENNESSEE HOURLY STATE WEATHER ROUNDUP
NATIONAL WEATHER SERVICE MEMPHIS TN
1200 AM CDT SUN APR 19 2015

TNZ002-004-019-021-049-052-054-088>092-190600-
WEST TENNESSEE

CITY           SKY/WX    TMP DP  RH WIND       PRES   REMARKS
MEMPHIS INTL   CLOUDY    67  62  84 SE9       29.78F
NWS MEMPHIS      N/A    N/A N/A N/A MISG        N/A
JACKSON        LGT RAIN  66  62  87 S5        29.81F
DYERSBURG      CLOUDY    66  54  63 CALM      29.80F
UNION CITY     MOCLDY    64  32  29 NE5       29.79F
PARIS          CLOUDY    63  63 100 CALM      29.82F
LEXINGTON      MOCLDY    66  63  88 CALM      29.81F
SAVANNAH       CLOUDY    64  32  29 S5        29.83F
$$

TNZ008-025-027-028-033-062-065-066-190600-
NORTH MIDDLE TENNESSEE

CITY           SKY/WX    TMP DP  RH WIND       PRES   REMARKS
NASHVILLE      CLOUDY    65  63  93 CALM      29.84F
CLARKSVILLE    CLOUDY    69  61  75 E8        29.83F
COOKEVILLE     MOCLDY    66  61  82 E7          N/A
CROSSVILLE     CLOUDY    64  59  83 CALM      29.94F
$$

TNZ061-075-076-078-094-096-097-190600-
SOUTH MIDDLE TENNESSEE

CITY           SKY/WX    TMP DP  RH WIND       PRES   REMARKS
FAYETTEVILLE   CLEAR     64  63  94 SE6       29.86F
TULLAHOMA      CLOUDY    66  61  82 CALM      29.89F
WINCHESTER     MOCLDY    66  63  88 SE7       29.88F
MCMINNVILLE    CLOUDY    70  63  78 VRB5      29.89F
COLUMBIA       MOCLDY    68  32  26 CALM      29.83F
SHELBYVILLE    CLOUDY    68  64  88 SE7       29.87F
$$

TNZ017-018-042-046-047-190600-
NORTHEAST TENNESSEE

CITY           SKY/WX    TMP DP  RH WIND       PRES   REMARKS
TRI CITIES     CLOUDY    59  57  93 CALM      29.97S
ELIZABETHTON   CLEAR     57  55  94 E8        29.98S
$$

TNZ012-013-036-069-073-074-190600-
CENTRAL EAST TENNESSEE

CITY           SKY/WX    TMP DP  RH WIND       PRES   REMARKS
KNOXVILLE      CLOUDY    64  63  96 NW3       29.92S
OAK RIDGE      CLOUDY    67  62  84 CALM      29.94S
GATLINBURG     CLOUDY    63  63 100 CALM      29.91F
$$

TNZ083-085-099-190600-
SOUTHEAST TENNESSEE

CITY           SKY/WX    TMP DP  RH WIND       PRES   REMARKS
CHATTANOOGA    CLOUDY    67  63  87 N5        29.91F
$$

SKY/WX REPORTED AS FAIR MEANS FEW OR NO CLOUDS BELOW
12 THOUSAND FEET.




USA.gov is the U.S. government's official web portal to all federal, state and local government web resources and services.